Regional Weather Roundup
Issued by NWS

Home | Current Version | Previous Version | Graphics & Text | Print | Product List | Glossary On
Versions: 1 2 3 4 5 6 7 8 9 10 11 12 13 14 15 16 17 18 19 20 21 22 23 24 25 26 27 28 29 30 31 32 33 34 35 36 37 38 39 40 41 42 43 44 45 46 47 48 49 50
000
ASUS43 KLSX 072210
RWRMO

WEATHER SUMMARY FOR MISSOURI
NATIONAL WEATHER SERVICE SPRINGFIELD MO
400 PM CST WED DEC 07 2016

NOTE: "FAIR" INDICATES FEW OR NO CLOUDS BELOW 12,000 FEET WITH NO
       SIGNIFICANT WEATHER AND/OR OBSTRUCTIONS TO VISIBILITY.
       CURRENT SKY AND/OR WEATHER CONDITIONS ARE NOT AVAILABLE FOR
       CHILLICOTHE AND FARMINGTON.

MOZ001>031-035>038-043-044-053-054-072300-
...NORTHERN AND WESTERN MISSOURI...

CITY           SKY/WX    TMP DP  RH WIND       PRES   REMARKS
KANSAS CTY INT CLOUDY    26  13  57 NW10      30.33R WCI  16
KANSAS C DTWN  CLOUDY    28  18  66 W9        30.34R WCI  19
LEE`S SUMMIT   CLOUDY    26  21  81 NW8       30.33R WCI  18
ST JOSEPH      CLOUDY    26  11  52 NW12      30.35R WCI  16
CHILLICOTHE      N/A     28  12  51 W8        30.32R WCI  20
KIRKSVILLE     MOCLDY    29  13  51 W12       30.27R WCI  19

$$
MOZ066>068-077>081-088>096-101>105-072300-
...SOUTHWEST MISSOURI...

CITY           SKY/WX    TMP DP  RH WIND       PRES   REMARKS
SPRINGFIELD    CLOUDY    35  16  45 N10       30.24R WCI  27
JOPLIN         CLOUDY    33  19  56 N13G20    30.28R WCI  24
BRANSON        CLOUDY    34  19  55 CALM      30.22R

$$
MOZ032>034-039>042-045>050-055>058-069>072-072300-
...CENTRAL MISSOURI...

CITY           SKY/WX    TMP DP  RH WIND       PRES   REMARKS
COLUMBIA       CLOUDY    31  22  69 W13       30.27R WCI  21
JEFFERSON CITY CLOUDY    33  21  61 W7        30.29R WCI  27
ROLLA          CLOUDY    34  18  52 NW8       30.22R WCI  27
SEDALIA        LGT SNOW  28  24  85 NW9       30.32R FOG     WCI  19
WHITEMAN AFB   LGT SNOW  27  27 100 NW10      30.31R FOG     WCI  17
WARRENSBURG    LGT SNOW  28  27  93 NW5       30.33R WCI  23
OSAGE BEACH    CLOUDY    33  21  61 N6        30.29R WCI  28

$$
MOZ051-052-059>065-072300-
...EAST CENTRAL MISSOURI...

CITY           SKY/WX    TMP DP  RH WIND       PRES   REMARKS
ST LOUIS INTL  CLOUDY    37  16  42 W7        30.23R
SPIRIT OF STL  CLOUDY    36  19  50 NW6       30.24R
ST CHARLES     CLOUDY    36  20  52 W8        30.23S WCI  30

$$
MOZ072>076-082>087-097>100-106>115-072300-
...SOUTH CENTRAL AND SOUTHEAST MISSOURI...

CITY           SKY/WX    TMP DP  RH WIND       PRES   REMARKS
CAPE GIRARDEAU CLOUDY    39  23  52 N9        30.22R
FARMINGTON     CLOUDY    36  17  46 NW9       30.22R WCI  29
POPLAR BLUFF   CLOUDY    41  22  46 N8        30.21R
WEST PLAINS    CLOUDY    37  16  42 N3        30.22R

$$



USA.gov is the U.S. government's official web portal to all federal, state and local government web resources and services.